This demonstration page uses our WeatherBlox Daily Observations layout. Learn more.

Left ArrowRight Arrow

34.16533, -84.80231

Hourly Observations for June 19, 2019

Temp ( °F °C ) Dew Point ( °F °C ) Humidity (%) Winds ( mph kmh ) Pressure ( in mb ) Visibility ( mi km ) Precip ( " mm )
12:11 am 00:11 Mostly Cloudy 69 20.6 68 20 96 96 Calm 29.92 1013 10 16 0.00 0.00
12:22 am 00:22 Cloudy 70 21.1 68 20 93 93 VRB 3 6 29.92 1013 10 16 0.00 0.00
12:53 am 00:53 Cloudy 70 21.1 68 20 93 93 Calm 29.90 1012 10 16 0.00 0.00
1:21 am 01:21 Mostly Cloudy 70 21.1 68 20 93 93 Calm 29.91 1013 10 16 0.00 0.00
1:39 am 01:39 Mostly Clear 70 21.1 68 20 93 93 SSE 3 6 29.91 1013 10 16 0.00 0.00
1:53 am 01:53 Clear 69 20.6 68 20 96 96 Calm 29.89 1012 10 16 0.00 0.00
2:19 am 02:19 Mostly Cloudy 69 20.6 68 20 96 96 SSE 3 6 29.90 1013 10 16 0.00 0.00
2:36 am 02:36 Partly Cloudy 69 20.6 68 20 96 96 Calm 29.89 1012 10 16 0.00 0.00
2:48 am 02:48 Mostly Cloudy 70 21 68 20 94 94 Calm 29.89 1012 10 16 0.00 0.00
2:53 am 02:53 Mostly Cloudy 69 20.6 68 20 96 96 Calm 29.87 1012 10 16 0.00 0.00
3:53 am 03:53 Cloudy 70 21.1 69 20.6 97 97 Calm 29.86 1011 10 16 0.00 0.00
4:53 am 04:53 Cloudy 71 21.7 69 20.6 94 94 Calm 29.85 1011 10 16 0.00 0.00
5:01 am 05:01 Cloudy 71 21.7 69 20.6 94 94 Calm 29.87 1011 10 16 0.00 0.00
5:46 am 05:46 Cloudy 71 21.7 69 20.6 94 94 S 3 6 29.87 1011 10 16 0.00 0.00
5:53 am 05:53 Cloudy 72 22.2 69 20.6 91 91 Calm 29.85 1011 10 16 0.00 0.00
6:53 am 06:53 Cloudy 72 22.2 69 20.6 91 91 S 3 6 29.86 1011 10 16 0.00 0.00
7:09 am 07:09 Mostly Cloudy 72 22.2 70 21.1 94 94 Calm 29.88 1012 10 16 0.00 0.00
7:53 am 07:53 Cloudy 74 23.3 70 21.1 88 88 Calm 29.86 1011 10 16 0.00 0.00
8:23 am 08:23 Partly Cloudy 75 23.9 71 21.7 88 88 VRB 5 7 29.87 1012 10 16 0.00 0.00
8:43 am 08:43 Mostly Cloudy 75 23.9 70 21.1 84 84 VRB 5 7 29.88 1012 10 16 0.00 0.00
8:53 am 08:53 Cloudy 75 23.9 71 21.7 88 88 VRB 3 6 29.87 1012 10 16 0.00 0.00
9:53 am 09:53 Cloudy 77 25 70 21.1 79 79 VRB 6 9 29.87 1012 10 16 0.00 0.00
10:53 am 10:53 Cloudy 77 25 70 21.1 79 79 VRB 3 6 29.86 1011 10 16 0.00 0.00
11:43 am 11:43 Mostly Cloudy 79 26.1 71 21.7 77 77 Calm 29.88 1012 10 16 0.00 0.00
11:53 am 11:53 Mostly Cloudy 79 26.1 71 21.7 77 77 VRB 5 7 29.87 1011 10 16 0.00 0.00
12:53 pm 12:53 Mostly Cloudy with Light Rain 82 27.8 72 22.2 72 72 SSW 5 7 29.85 1011 10 16 0.00 0.03
1:53 pm 13:53 Mostly Cloudy 84 28.9 70 21.1 63 63 VRB 3 6 29.83 1010 10 16 0.00 0.03
2:53 pm 14:53 Partly Cloudy with Light Rain 85 29.4 70 21.1 61 61 Calm 29.80 1009 10 16 0.00 0.03
3:53 pm 15:53 Mostly Cloudy 85 29.4 71 21.7 63 63 VRB 6 9 29.78 1009 10 16 0.00 0.03
4:53 pm 16:53 Partly Cloudy with Light Rain 85 29.4 71 21.7 63 63 SSW 6 9 29.77 1008 10 16 0.00 0.03
5:53 pm 17:53 Partly Cloudy with Light Rain 85 29.4 69 20.6 59 59 VRB 7 11 29.76 1008 10 16 0.00 0.03
6:53 pm 18:53 Sunny with Light Rain 84 28.9 70 21.1 63 63 VRB 5 7 29.75 1008 10 16 0.00 0.03
7:53 pm 19:53 Sunny 83 28.3 70 21.1 65 65 S 3 6 29.76 1008 10 16 0.00 0.03
8:53 pm 20:53 Sunny 80 26.7 71 21.7 74 74 S 8 13 29.76 1008 10 16 0.00 0.00
9:53 pm 21:53 Clear 77 25 71 21.7 82 82 SSW 3 6 29.76 1008 10 16 0.00 0.00
10:53 pm 22:53 Clear 76 24.4 70 21.1 82 82 S 3 6 29.78 1008 10 16 0.00 0.00
11:53 pm 23:53 Clear 74 23.3 70 21.1 88 88 Calm 29.77 1008 10 16 0.00 0.00

Powered by AerisWeather